Starlink 31446

operational
NORAD ID: 59315 Int'l Des: 2024-056 Owner: SPXS Country: US Constellation: starlink
LEOCIRCULAR

About Starlink 31446

Description loading...

Live Position

Loading 3D Globe...

Upcoming Passes

Altitude History

Altitude vs Time

uPlot chart will show altitude changes over time

Two-Line Element Set

1 59315U 24056V 26101.88043448 -.00000309 00000-0 -17089-5 0 9993
2 59315 43.0044 42.9865 0000525 294.3680 65.7117 15.27576045116230
Epoch: Apr 11, 2026 • Age: 9 hours

Current Status

Altitude 484.7 km
Velocity 7.62 km/s
Sub-Earth Point -9.65°S, 56.4°W
Launch Date Mar 24, 2024
Age 2 years
Type internet

Technical Details

Classification Payload
Mass 730.00 kg
Dry Mass 700.00 kg
Total Mass 730.00 kg
Length 0.30 m
Diameter 4.10 m
Span 29.00 m
Shape Box + pan
Manufacturer SPXS
Bus Type Starlink V2M
Phase Status In Orbit
Owner/State SPXS/US

Large Constellations

Loading constellations...